FW5157 Weather Reports


time (UTC)temp
C
wind
direction
speed
KPH
gust
KPH
rain 1hr
cm
rain 24hr
cm
rain mn
cm
humidity
%
barometer
mb
20260507090044 14 92 1.6 4.8 0.00 0.00 0.00 66 1014.9
20260507084551 13 0 0.0 4.8 0.00 0.00 0.00 70 1014.9
20260507083044 13 109 1.6 6.4 0.00 0.00 0.00 74 1014.9
20260507081551 12 155 0.0 4.8 0.00 0.00 0.00 79 1014.7
20260507080049 10 0 0.0 4.8 0.00 0.00 0.00 87 1014.7
20260507074550 10 75 0.0 6.4 0.00 0.00 0.00 87 1014.7
20260507073050 8 0 0.0 4.8 0.00 0.00 0.00 89 1014.8
20260507071606 7 0 0.0 3.2 0.00 0.00 0.00 89 1014.6
20260507070048 6 0 0.0 4.8 0.00 0.00 0.00 89 1014.6
20260507064546 5 0 0.0 1.6 0.00 0.00 0.00 88 1014.6
20260507063046 4 0 0.0 3.2 0.00 0.00 0.00 87 1014.8
20260507061558 3 0 0.0 0.0 0.00 0.00 0.00 86 1014.7
20260507060056 3 0 0.0 0.0 0.00 0.00 0.00 86 1014.5
20260507054546 3 0 0.0 1.6 0.00 0.00 0.00 86 1014.5
20260507053115 3 0 0.0 1.6 0.00 0.00 0.00 85 1014.4
20260507051550 3 0 0.0 1.6 0.00 0.00 0.00 85 1014.1
20260507050046 3 0 0.0 1.6 0.00 0.00 0.00 84 1014.1
20260507044556 3 0 0.0 1.6 0.00 0.00 0.00 84 1014.0
20260507043051 3 0 0.0 1.6 0.00 0.00 0.00 84 1013.9
20260507041547 3 0 0.0 1.6 0.00 0.00 0.00 84 1014.0
20260507040055 3 0 0.0 0.0 0.00 0.00 0.00 84 1014.2
20260507034551 4 0 0.0 0.0 0.00 0.00 0.00 84 1014.1
20260507033052 4 0 0.0 0.0 0.00 0.00 0.00 83 1014.1
20260507031554 4 0 0.0 0.0 0.00 0.00 0.00 83 1014.2
20260507030053 4 0 0.0 0.0 0.00 0.00 0.00 83 1014.1
20260507024601 5 0 0.0 0.0 0.00 0.00 0.00 83 1014.0
20260507023044 5 0 0.0 0.0 0.00 0.00 0.00 82 1014.1
20260507021545 5 0 0.0 0.0 0.00 0.00 0.00 82 1013.9
20260507020049 5 0 0.0 0.0 0.00 0.00 0.00 82 1013.8
20260507014602 5 0 0.0 0.0 0.00 0.00 0.00 81 1013.7
20260507013048 5 0 0.0 0.0 0.00 0.00 0.00 81 1013.7
20260507011551 6 0 0.0 0.0 0.00 0.00 0.00 80 1013.8
20260507004601 6 0 0.0 0.0 0.00 0.00 0.00 79 1013.7
20260507003054 7 0 0.0 0.0 0.00 0.00 0.00 78 1013.8
20260507001556 7 0 0.0 1.6 0.00 0.00 0.00 77 1014.0
20260507000059 7 0 0.0 0.0 0.00 0.00 0.00 76 1014.1
20260506234554 8 0 0.0 3.2 0.00 0.00 0.00 75 1014.0
20260506233059 8 0 0.0 0.0 0.00 0.00 0.00 74 1013.7
20260506231553 8 0 0.0 0.0 0.00 0.00 0.00 74 1013.7
20260506230058 9 0 0.0 0.0 0.00 0.00 0.00 73 1013.8
20260506224552 9 0 0.0 3.2 0.00 0.00 0.00 73 1013.7
20260506223051 10 346 0.0 1.6 0.00 0.00 0.00 72 1013.8
20260506221552 10 0 0.0 3.2 0.00 0.00 0.00 72 1013.7
20260506220048 10 0 0.0 4.8 0.00 0.00 0.00 71 1013.6
20260506214601 10 0 0.0 4.8 0.00 0.00 0.00 71 1013.6
20260506213047 11 0 0.0 4.8 0.00 0.00 0.00 70 1013.6
20260506211548 11 0 0.0 4.8 0.00 0.00 0.00 69 1013.5
20260506210049 11 324 1.6 4.8 0.00 0.00 0.00 68 1013.4
20260506204552 11 38 0.0 4.8 0.00 0.00 0.00 67 1013.3
20260506203043 11 309 0.0 8.0 0.00 0.00 0.00 66 1013.1
20260506201549 11 0 1.6 8.0 0.00 0.00 0.00 64 1012.8
20260506200055 11 0 0.0 8.0 0.00 0.00 0.00 61 1012.8
20260506194551 12 0 0.0 6.4 0.00 0.00 0.00 61 1012.7
20260506193054 12 0 0.0 3.2 0.00 0.00 0.00 61 1012.6
20260506191607 12 0 0.0 3.2 0.00 0.00 0.00 61 1012.5
20260506190055 12 71 0.0 4.8 0.00 0.00 0.00 62 1012.4
20260506184552 12 332 0.0 3.2 0.00 0.00 0.00 62 1012.3
20260506183053 12 332 0.0 3.2 0.00 0.00 0.00 62 1012.3
20260506181558 12 327 0.0 6.4 0.00 0.00 0.00 60 1012.2
20260506180113 13 0 0.0 4.8 0.00 0.00 0.00 59 1012.1
20260506174552 13 94 0.0 4.8 0.00 0.00 0.00 59 1011.8
20260506173129 13 333 1.6 6.4 0.00 0.00 0.00 59 1011.9
20260506171558 13 0 0.0 4.8 0.00 0.00 0.00 59 1011.9
20260506170050 13 0 0.0 6.4 0.00 0.00 0.00 59 1011.8
20260506164556 13 5 1.6 9.7 0.00 0.00 0.00 58 1011.8
20260506163059 14 90 1.6 8.0 0.00 0.00 0.00 56 1011.9
20260506161555 15 327 1.6 8.0 0.00 0.00 0.00 53 1012.0
20260506160053 15 360 1.6 8.0 0.00 0.00 0.00 55 1011.9
20260506154555 15 321 1.6 6.4 0.00 0.00 0.00 54 1011.9
20260506153056 15 344 1.6 14.5 0.00 0.00 0.00 56 1011.9
20260506151552 15 0 1.6 8.0 0.00 0.00 0.00 55 1011.9
20260506150057 13 309 4.8 9.7 0.00 0.00 0.00 59 1011.9
20260506144604 14 85 1.6 11.3 0.00 0.00 0.00 57 1011.9
20260506143056 15 134 3.2 12.9 0.00 0.00 0.00 57 1011.8
20260506141553 15 326 3.2 14.5 0.00 0.00 0.00 56 1011.9
20260506140054 15 333 1.6 8.0 0.00 0.00 0.00 59 1012.0
20260506134555 13 355 1.6 12.9 0.00 0.00 0.00 59 1011.9
20260506133057 15 309 1.6 14.5 0.00 0.00 0.00 57 1011.9
20260506131552 15 345 3.2 12.9 0.00 0.00 0.00 57 1011.9
20260506130057 15 304 3.2 20.9 0.00 0.00 0.00 52 1011.8
20260506124551 15 59 3.2 11.3 0.00 0.00 0.00 54 1011.8
20260506123054 14 15 3.2 12.9 0.00 0.00 0.00 53 1011.7
20260506121555 15 220 1.6 14.5 0.00 0.00 0.00 57 1011.8
20260506120053 14 41 3.2 12.9 0.00 0.00 0.00 55 1011.9
20260506114555 15 331 1.6 16.1 0.00 0.00 0.00 53 1011.9
20260506113054 14 316 1.6 12.9 0.00 0.00 0.00 55 1012.0
20260506111557 13 18 3.2 16.1 0.00 0.00 0.00 55 1012.0
20260506110051 13 5 4.8 14.5 0.00 0.00 0.00 56 1011.9
20260506104557 13 0 4.8 14.5 0.00 0.00 0.00 56 1011.9
20260506103051 14 70 3.2 14.5 0.00 0.00 0.00 60 1011.8
20260506101553 13 5 3.2 14.5 0.00 0.00 0.00 63 1011.8
20260506100059 12 355 3.2 9.7 0.00 0.00 0.00 65 1012.1
20260506094605 11 311 3.2 16.1 0.00 0.00 0.00 65 1012.0
20260506093051 11 360 3.2 14.5 0.00 0.00 0.00 66 1012.1
20260506091551 11 348 3.2 12.9 0.00 0.00 0.00 66 1012.1